DW2128 Weather Reports


time (UTC)temp
C
wind
direction
speed
KPH
gust
KPH
rain 1hr
cm
rain 24hr
cm
rain mn
cm
humidity
%
barometer
mb
20260507040521 16 338 0.0 0.0 0.00 0.00 0.00 73 1017.9
20260507040350 16 338 0.0 0.0 0.00 0.00 0.00 73 1017.7
20260507035023 16 339 0.0 0.0 0.00 0.00 0.00 72 1017.7
20260507034828 16 339 0.0 0.0 0.00 0.00 0.00 71 1017.5
20260507033523 17 339 0.0 0.0 0.00 0.00 0.00 70 1017.5
20260507033329 17 339 0.0 0.0 0.00 0.00 0.00 70 1017.2
20260507032023 17 338 0.0 0.0 0.00 0.00 0.00 69 1017.2
20260507031855 17 338 0.0 0.0 0.00 0.00 0.00 69 1017.1
20260507030547 18 328 0.0 0.0 0.00 0.00 0.00 66 1017.1
20260507030351 18 328 0.0 0.0 0.00 0.00 0.00 65 1016.7
20260507025023 18 254 0.0 0.0 0.00 0.00 0.00 62 1016.8
20260507024829 18 254 0.0 0.0 0.00 0.00 0.00 62 1016.7
20260507023526 20 308 0.0 0.0 0.00 0.00 0.00 58 1016.7
20260507023335 20 310 0.0 0.0 0.00 0.00 0.00 57 1016.5
20260507022030 20 312 0.0 0.0 0.00 0.00 0.00 55 1016.5
20260507021835 20 312 0.0 0.0 0.00 0.00 0.00 55 1016.4
20260507020529 21 244 0.0 0.0 0.00 0.00 0.00 53 1016.4
20260507020335 21 242 0.0 0.0 0.00 0.00 0.00 53 1016.3
20260507015029 22 308 0.0 0.0 0.00 0.00 0.00 51 1016.3
20260507014839 22 308 1.6 0.0 0.00 0.00 0.00 50 1016.2
20260507013533 22 5 0.0 0.0 0.00 0.00 0.00 49 1016.2
20260507013338 23 5 0.0 0.0 0.00 0.00 0.00 48 1016.2
20260507012051 23 329 0.0 0.0 0.00 0.00 0.00 46 1016.2
20260507011839 23 259 0.0 0.0 0.00 0.00 0.00 47 1016.2
20260507010528 23 15 0.0 0.0 0.00 0.00 0.00 46 1016.2
20260507010320 23 317 1.6 0.0 0.00 0.00 0.00 46 1016.2
20260507005019 23 310 1.6 0.0 0.00 0.00 0.00 45 1016.2
20260507004845 23 313 1.6 0.0 0.00 0.00 0.00 44 1015.9
20260507003537 24 338 0.0 0.0 0.00 0.00 0.00 45 1015.9
20260507003328 24 338 0.0 0.0 0.00 0.00 0.00 42 1015.8
20260507002023 24 5 0.0 0.0 0.00 0.00 0.00 42 1015.8
20260507001828 24 250 0.0 0.0 0.00 0.00 0.00 44 1015.7
20260507000541 25 309 0.0 0.0 0.00 0.00 0.00 42 1015.7
20260507000329 25 306 0.0 0.0 0.00 0.00 0.00 42 1015.7
20260506235021 25 288 1.6 0.0 0.00 0.00 0.00 41 1015.7
20260506234829 25 294 1.6 0.0 0.00 0.00 0.00 42 1015.7
20260506233522 25 325 1.6 0.0 0.00 0.00 0.00 41 1015.7
20260506233348 25 277 0.0 0.0 0.00 0.00 0.00 41 1015.7
20260506232021 25 17 1.6 0.0 0.00 0.00 0.00 41 1015.7
20260506231823 25 30 1.6 0.0 0.00 0.00 0.00 41 1015.8
20260506230537 25 306 1.6 0.0 0.00 0.00 0.00 40 1015.8
20260506230346 25 284 1.6 0.0 0.00 0.00 0.00 41 1015.8
20260506225018 25 289 1.6 0.0 0.00 0.00 0.00 41 1015.8
20260506224825 25 360 1.6 0.0 0.00 0.00 0.00 41 1016.1
20260506223538 25 291 1.6 0.0 0.00 0.00 0.00 39 1016.1
20260506223321 25 26 1.6 0.0 0.00 0.00 0.00 40 1016.2
20260506222038 26 24 0.0 0.0 0.00 0.00 0.00 39 1016.2
20260506221826 26 290 0.0 0.0 0.00 0.00 0.00 39 1016.2
20260506220523 25 18 1.6 0.0 0.00 0.00 0.00 38 1016.2
20260506220348 25 18 1.6 0.0 0.00 0.00 0.00 38 1016.6
20260506215027 24 22 3.2 0.0 0.00 0.00 0.00 40 1016.6
20260506214832 24 19 1.6 0.0 0.00 0.00 0.00 40 1016.7
20260506213530 23 263 0.0 0.0 0.00 0.00 0.00 41 1016.7
20260506213339 23 11 0.0 0.0 0.00 0.00 0.00 42 1016.9
20260506212030 23 317 1.6 0.0 0.00 0.00 0.00 43 1016.9
20260506211834 23 346 0.0 0.0 0.00 0.00 0.00 42 1017.1
20260506210528 23 360 0.0 0.0 0.00 0.00 0.00 41 1017.1
20260506210352 23 360 0.0 0.0 0.00 0.00 0.00 43 1017.2
20260506205025 23 10 1.6 0.0 0.00 0.00 0.00 45 1017.2
20260506204837 23 11 1.6 0.0 0.00 0.00 0.00 45 1017.3
20260506203535 23 252 1.6 0.0 0.00 0.00 0.00 44 1017.3
20260506203340 23 13 0.0 0.0 0.00 0.00 0.00 45 1017.4
20260506202054 23 22 0.0 0.0 0.00 0.00 0.00 45 1017.4
20260506201859 23 22 0.0 0.0 0.00 0.00 0.00 44 1017.7
20260506200532 22 244 1.6 0.0 0.00 0.00 0.00 48 1017.7
20260506200401 22 242 1.6 0.0 0.00 0.00 0.00 48 1017.7
20260506195034 22 9 0.0 0.0 0.00 0.00 0.00 49 1017.7
20260506194839 21 360 0.0 0.0 0.00 0.00 0.00 48 1017.8
20260506193553 21 15 0.0 0.0 0.00 0.00 0.00 49 1017.8
20260506193337 21 15 0.0 0.0 0.00 0.00 0.00 48 1018.0
20260506192033 21 300 1.6 0.0 0.00 0.00 0.00 50 1018.0
20260506191822 21 300 1.6 0.0 0.00 0.00 0.00 51 1018.1
20260506190516 21 31 1.6 0.0 0.00 0.00 0.00 50 1018.1
20260506190323 20 38 1.6 0.0 0.00 0.00 0.00 50 1018.2
20260506185022 20 338 1.6 0.0 0.00 0.00 0.00 55 1018.2
20260506184827 19 315 1.6 0.0 0.00 0.00 0.00 54 1018.4
20260506183524 18 312 3.2 0.0 0.00 0.00 0.00 56 1018.3
20260506183334 18 29 1.6 0.0 0.00 0.00 0.00 57 1018.4
20260506182128 18 224 1.6 0.0 0.00 0.00 0.00 56 1018.4
20260506181828 19 257 1.6 0.0 0.00 0.00 0.00 56 1018.4
20260506180543 18 16 0.0 0.0 0.00 0.00 0.00 58 1018.4
20260506180327 18 16 0.0 0.0 0.00 0.00 0.00 57 1018.4
20260506175021 18 17 1.6 0.0 0.00 0.00 0.00 60 1018.4
20260506174831 17 17 1.6 0.0 0.00 0.00 0.00 60 1018.5
20260506173525 17 360 1.6 0.0 0.00 0.00 0.00 63 1018.5
20260506173330 17 360 1.6 0.0 0.00 0.00 0.00 64 1018.8
20260506172025 16 259 3.2 0.0 0.00 0.00 0.00 65 1018.8
20260506171850 16 259 3.2 0.0 0.00 0.00 0.00 64 1018.8
20260506170543 16 220 0.0 0.0 0.00 0.00 0.00 65 1018.8
20260506170330 16 254 0.0 0.0 0.00 0.00 0.00 65 1018.7
20260506165024 16 247 1.6 0.0 0.00 0.00 0.00 66 1018.7
20260506164832 16 247 1.6 0.0 0.00 0.00 0.00 66 1018.8
20260506163527 16 263 0.0 0.0 0.00 0.00 0.00 67 1018.8
20260506163331 16 344 0.0 0.0 0.00 0.00 0.00 68 1018.8
20260506162025 15 344 0.0 0.0 0.00 0.00 0.00 69 1018.7
20260506161855 15 344 0.0 0.0 0.00 0.00 0.00 69 1018.7
20260506160528 15 344 0.0 0.0 0.00 0.00 0.00 71 1018.7
20260506160333 15 344 0.0 0.0 0.00 0.00 0.00 71 1018.7
20260506155033 15 209 0.0 0.0 0.00 0.00 0.00 72 1018.6
20260506154822 15 209 0.0 0.0 0.00 0.00 0.00 72 1018.6
20260506153519 15 209 0.0 0.0 0.00 0.00 0.00 73 1018.6
20260506153323 15 207 0.0 0.0 0.00 0.00 0.00 73 1018.7
20260506152040 15 205 0.0 0.0 0.00 0.00 0.00 73 1018.7
20260506151843 15 203 0.0 0.0 0.00 0.00 0.00 73 1018.7
20260506150556 15 355 0.0 0.0 0.00 0.00 0.00 74 1018.7
20260506150324 14 355 0.0 0.0 0.00 0.00 0.00 74 1018.7
20260506145019 14 355 0.0 0.0 0.00 0.00 0.00 75 1018.7
20260506144824 14 355 0.0 0.0 0.00 0.00 0.00 75 1018.7
20260506143519 14 355 0.0 0.0 0.00 0.00 0.00 75 1018.7
20260506143347 14 355 0.0 0.0 0.00 0.00 0.00 75 1018.7
20260506142038 13 355 0.0 0.0 0.00 0.00 0.00 76 1018.7
20260506141829 13 355 0.0 0.0 0.00 0.00 0.00 76 1018.3
20260506140527 13 355 0.0 0.0 0.00 0.00 0.00 76 1018.3
20260506140332 13 355 0.0 0.0 0.00 0.00 0.00 76 1018.2
20260506135025 13 355 0.0 0.0 0.00 0.00 0.00 76 1018.2
20260506134849 13 355 0.0 0.0 0.00 0.00 0.00 76 1017.8
20260506133544 13 355 0.0 0.0 0.00 0.00 0.00 76 1017.8
20260506133348 13 355 0.0 0.0 0.00 0.00 0.00 76 1017.7
20260506132021 13 355 0.0 0.0 0.00 0.00 0.00 76 1017.7
20260506131830 13 355 0.0 0.0 0.00 0.00 0.00 76 1017.4
20260506130525 13 355 0.0 0.0 0.00 0.00 0.00 75 1017.4
20260506130331 13 355 0.0 0.0 0.00 0.00 0.00 75 1017.3
20260506125025 13 355 0.0 0.0 0.00 0.00 0.00 75 1017.3
20260506124827 13 355 0.0 0.0 0.00 0.00 0.00 75 1017.3
20260506123521 13 355 0.0 0.0 0.00 0.00 0.00 75 1017.3
20260506123332 13 355 0.0 0.0 0.00 0.00 0.00 75 1017.2
20260506122026 13 355 0.0 0.0 0.00 0.00 0.00 76 1017.2
20260506121829 13 355 0.0 0.0 0.00 0.00 0.00 76 1017.2
20260506120522 13 355 0.0 0.0 0.00 0.00 0.00 76 1017.2
20260506120331 13 355 0.0 0.0 0.00 0.00 0.00 76 1017.1
20260506115026 13 355 0.0 0.0 0.00 0.00 0.00 77 1017.1
20260506114851 13 355 0.0 0.0 0.00 0.00 0.00 77 1017.0
20260506113526 13 355 0.0 0.0 0.00 0.00 0.00 77 1017.0
20260506113330 13 355 0.0 0.0 0.00 0.00 0.00 77 1016.9
20260506112024 13 355 0.0 0.0 0.00 0.00 0.00 76 1016.9
20260506111833 13 355 0.0 0.0 0.00 0.00 0.00 76 1016.9
20260506110528 13 355 0.0 0.0 0.00 0.00 0.00 76 1016.9
20260506110333 13 355 0.0 0.0 0.00 0.00 0.00 76 1016.8
20260506105029 13 355 0.0 0.0 0.00 0.00 0.00 76 1016.8
20260506104834 13 355 0.0 0.0 0.00 0.00 0.00 76 1016.7
20260506103548 13 355 0.0 0.0 0.00 0.00 0.00 76 1016.7
20260506103336 13 355 0.0 0.0 0.00 0.00 0.00 76 1016.7
20260506102030 13 355 0.0 0.0 0.00 0.00 0.00 76 1016.7
20260506101835 13 355 0.0 0.0 0.00 0.00 0.00 76 1016.7
20260506100533 13 355 0.0 0.0 0.00 0.00 0.00 76 1016.7
20260506100358 13 355 0.0 0.0 0.00 0.00 0.00 76 1016.7
20260506095032 13 355 0.0 0.0 0.00 0.00 0.00 75 1016.7
20260506094840 13 355 0.0 0.0 0.00 0.00 0.00 75 1016.8
20260506093553 13 355 0.0 0.0 0.00 0.00 0.00 75 1016.8
20260506093337 13 355 0.0 0.0 0.00 0.00 0.00 75 1017.0
20260506092030 13 355 0.0 0.0 0.00 0.00 0.00 75 1017.0
20260506091834 13 355 0.0 0.0 0.00 0.00 0.00 75 1016.9
20260506090529 13 355 0.0 0.0 0.00 0.00 0.00 75 1016.9
20260506090338 13 355 0.0 0.0 0.00 0.00 0.00 75 1016.8
20260506085032 13 355 0.0 0.0 0.00 0.00 0.00 74 1016.8
20260506084837 13 355 0.0 0.0 0.00 0.00 0.00 74 1016.8
20260506083530 13 355 0.0 0.0 0.00 0.00 0.00 74 1016.8
20260506083340 13 355 0.0 0.0 0.00 0.00 0.00 74 1016.9
20260506082033 13 355 0.0 0.0 0.00 0.00 0.00 74 1016.9
20260506081838 13 355 0.0 0.0 0.00 0.00 0.00 74 1016.8
20260506080532 13 355 0.0 0.0 0.00 0.00 0.00 74 1016.8
20260506080337 13 355 0.0 0.0 0.00 0.00 0.00 74 1016.8
20260506073339 13 355 0.0 0.0 0.00 0.00 0.00 73 1016.7
20260506072033 14 355 0.0 0.0 0.00 0.00 0.00 73 1016.7
20260506071838 14 355 0.0 0.0 0.00 0.00 0.00 73 1016.5
20260506070535 14 355 0.0 0.0 0.00 0.00 0.00 72 1016.5
20260506070324 14 355 0.0 0.0 0.00 0.00 0.00 72 1016.3
20260506062021 14 355 0.0 0.0 0.00 0.00 0.00 72 1016.2
20260506061826 14 355 0.0 0.0 0.00 0.00 0.00 72 1016.1
20260506060520 15 355 0.0 0.0 0.00 0.00 0.00 71 1016.1
20260506060325 15 355 0.0 0.0 0.00 0.00 0.00 71 1016.0
20260506050550 15 355 0.0 0.0 0.00 0.00 0.00 68 1015.7
20260506050338 15 355 0.0 0.0 0.00 0.00 0.00 67 1015.6
20260506045031 15 355 0.0 0.0 0.00 0.00 0.00 66 1015.6
20260506044836 15 355 0.0 0.0 0.00 0.00 0.00 66 1015.4
20260506043531 15 355 0.0 0.0 0.00 0.00 0.00 66 1015.4
20260506043339 15 355 0.0 0.0 0.00 0.00 0.00 65 1015.2
20260506042032 15 355 0.0 0.0 0.00 0.00 0.00 66 1015.2
20260506041837 15 355 0.0 0.0 0.00 0.00 0.00 66 1015.1